Lapse_Rate
4.8 4.7 4.8 4.6 4.5 4.5 4.2 4.5 5.0 5.0 5.1 5.3 5.5 5.6 5.7 6.0 6.0 6.1 6.2 6.2 6.2 6.2 6.3 6.4 6.4 6.6 6.5 6.9 7.7 6.5 7.3 7.3 7.5 7.5 7.5 7.4 7.4 7.1 7.1 6.9 6.8 6.5 6.9 7.2 8.0 8.1 8.1
5.2 5.2 5.1 4.9 4.8 4.8 4.4 4.1 4.7 5.1 4.6 5.0 5.5 5.5 5.7 5.8 6.0 6.0 6.0 6.2 6.2 6.3 6.2 6.3 6.3 6.5 6.6 7.2 7.0 7.0 7.3 7.5 7.4 7.5 7.3 7.5 7.4 6.9 6.7 6.9 6.6 6.8 7.2 7.6 7.9 7.9 8.1
5.9 5.7 5.7 5.9 5.5 5.2 4.9 4.8 4.9 4.5 4.4 4.7 5.1 5.3 5.7 5.9 5.9 6.0 6.0 6.1 5.9 5.9 6.1 6.0 6.1 6.4 6.9 7.4 6.9 7.0 7.5 7.2 7.3 7.4 7.3 7.3 6.9 6.6 6.6 7.0 6.6 6.8 7.3 7.9 7.9 8.1 7.8
5.9 5.9 5.9 6.2 6.4 6.2 5.5 5.1 5.2 5.2 5.3 5.2 5.2 5.5 5.7 6.1 5.8 5.9 6.0 6.1 5.9 5.6 5.9 5.7 5.9 6.2 7.3 6.7 7.1 7.2 7.2 7.1 7.2 7.4 7.2 6.8 6.6 6.7 6.2 6.7 6.6 6.9 7.4 8.0 8.4 8.1 8.1
5.9 5.9 6.0 6.1 6.5 6.6 6.3 6.2 5.6 5.6 5.5 5.3 5.2 5.6 5.6 5.9 6.2 6.1 6.1 6.1 5.8 5.5 5.5 5.3 5.6 6.0 7.2 7.0 7.1 6.9 6.9 7.8 6.9 7.1 7.0 6.5 6.4 6.5 6.4 6.5 6.6 7.0 7.2 7.6 8.1 8.1 8.3
6.0 5.9 5.9 6.0 6.0 5.7 5.9 6.2 6.3 6.2 6.0 5.5 5.5 5.6 5.4 5.5 5.6 5.9 6.2 6.0 5.6 5.5 5.1 5.3 5.3 5.7 6.8 6.6 6.8 7.0 6.8 7.3 7.1 6.6 6.7 6.6 6.3 6.0 6.5 6.4 6.8 7.2 7.5 7.7 7.6 7.9 8.6
6.0 5.8 5.7 5.7 5.5 5.6 5.4 5.5 5.6 5.5 6.0 5.9 6.6 6.1 5.7 5.9 6.0 6.1 5.9 6.2 5.6 5.1 4.8 5.3 5.1 5.9 6.7 6.3 6.6 6.7 6.6 6.6 6.6 6.2 6.3 6.8 6.1 6.5 7.3 6.8 7.3 7.1 6.9 7.3 7.5 8.1 8.7
5.7 5.5 5.3 5.4 5.3 5.2 5.2 5.1 5.1 4.9 4.9 5.2 5.5 5.6 6.1 6.1 7.1 6.8 6.5 6.8 5.6 4.6 5.2 5.6 5.7 6.3 6.8 6.1 6.0 6.7 6.5 6.8 6.4 6.6 6.5 6.2 6.2 7.4 7.3 6.8 7.1 6.9 7.0 7.5 7.5 8.4 8.9
5.5 5.3 5.1 5.1 5.1 4.9 4.8 4.8 4.8 4.8 4.7 4.7 5.0 5.0 5.2 5.7 5.7 6.3 6.2 6.7 5.6 4.3 4.8 7.1 6.7 6.1 7.0 5.5 6.2 6.5 6.6 6.6 6.6 6.2 6.2 6.2 7.3 7.1 6.7 7.0 7.0 7.1 6.9 7.3 7.9 8.4 8.5
5.4 5.1 5.0 4.9 4.9 4.9 4.6 4.6 4.7 4.8 4.8 4.8 4.7 4.7 4.8 5.1 5.3 5.5 5.9 6.0 5.7 4.5 4.5 5.8 7.2 6.7 7.2 6.7 5.7 7.2 6.1 6.5 6.0 6.1 6.3 5.8 6.9 6.7 6.4 6.9 7.3 7.1 7.6 7.3 7.8 7.9 8.1
5.0 5.0 4.7 4.7 4.5 4.4 4.5 4.4 4.4 4.5 4.7 4.8 4.6 4.3 4.4 4.8 4.9 5.0 5.0 5.1 4.8 5.0 3.5 6.6 6.4 6.3 6.4 6.6 7.2 7.2 6.8 6.2 6.8 6.9 6.1 5.9 6.7 7.1 6.8 7.2 7.4 7.0 7.6 7.5 7.8 7.9 8.0
4.8 4.7 4.5 4.6 4.6 4.2 4.2 4.4 4.3 4.3 4.4 4.4 4.3 4.3 4.0 4.9 5.1 4.1 4.7 4.5 4.2 4.8 3.5 6.5 6.2 6.5 6.4 6.5 6.7 6.7 6.5 6.2 6.8 6.5 5.9 6.3 7.0 6.6 6.7 7.6 7.5 7.4 7.9 8.0 7.7 7.6 6.7
4.7 4.8 5.0 5.2 5.1 4.9 4.6 4.5 4.3 4.2 4.0 4.0 4.0 4.0 3.9 5.1 4.8 3.9 4.6 4.3 3.9 3.5 5.2 6.4 6.3 6.5 6.6 6.7 6.4 6.5 6.7 6.2 6.0 5.8 5.7 6.0 6.3 6.8 6.8 6.9 7.2 7.3 7.9 7.7 7.0 6.1 5.6
5.6 5.9 5.8 5.5 5.2 5.3 5.4 5.2 5.0 4.8 4.2 4.1 3.8 3.5 3.2 5.4 4.4 4.5 4.7 4.6 3.2 4.0 5.0 6.4 6.6 6.2 6.1 6.7 7.0 6.9 6.4 6.1 6.1 6.0 6.3 6.2 6.5 7.0 7.3 6.9 7.6 7.6 8.1 7.5 6.0 5.6 6.8
6.3 6.2 6.0 5.7 5.6 5.7 5.9 6.0 5.7 5.5 5.0 4.7 4.5 3.9 3.6 6.0 4.9 4.5 4.1 3.4 3.1 3.4 4.3 6.3 6.7 6.7 6.6 6.6 6.8 6.7 6.5 6.2 6.3 6.3 6.2 6.6 6.2 7.6 7.8 8.0 7.9 7.8 8.1 8.0 8.1 6.2 5.8
6.2 6.0 5.9 6.0 6.0 6.1 6.2 6.4 6.2 6.1 5.6 5.5 5.4 5.1 5.7 5.3 5.1 5.0 3.6 2.3 2.8 3.7 5.7 6.4 6.2 6.1 6.5 7.1 7.2 6.8 6.5 6.7 6.7 6.5 6.6 6.5 6.6 7.5 7.9 8.0 8.0 7.9 8.4 8.3 8.0 5.8 6.0
6.1 6.3 6.4 6.4 6.5 6.6 6.6 6.6 6.4 6.3 6.1 6.3 6.5 5.9 6.6 5.7 5.5 5.1 3.2 2.6 4.2 4.9 5.4 6.6 6.3 6.1 6.7 7.0 6.7 6.8 6.3 6.6 7.3 7.2 7.0 6.9 6.8 7.1 7.6 7.6 7.9 7.9 8.0 8.0 8.3 8.0 5.6
6.5 6.6 6.5 6.7 6.7 6.6 6.5 6.5 6.5 6.5 6.5 6.9 7.0 6.1 5.8 5.9 5.6 5.5 4.9 4.7 4.4 5.3 5.8 6.1 6.6 5.8 6.4 6.7 7.0 7.0 7.2 6.8 6.7 6.9 6.7 7.2 7.4 6.7 7.0 7.6 7.9 8.1 8.1 8.3 8.1 7.3 7.3
6.6 6.7 6.7 6.7 6.8 7.1 7.1 7.0 6.9 6.8 6.8 6.9 6.7 6.2 5.9 6.0 5.6 5.6 4.9 5.3 4.8 4.9 5.8 6.3 6.3 6.6 6.7 7.1 7.1 7.4 7.3 7.4 6.7 6.3 6.6 6.9 6.7 6.8 7.0 7.6 7.6 7.8 7.7 8.2 8.5 8.4 7.6
6.7 6.5 6.6 6.7 6.7 6.8 6.8 6.8 6.7 6.6 6.7 6.5 6.5 6.2 5.8 5.7 5.7 5.3 4.8 4.9 4.8 4.8 5.2 5.9 6.7 7.0 7.2 6.9 7.1 7.2 7.5 7.6 7.1 7.2 6.1 6.6 6.4 6.5 6.0 7.0 7.5 7.7 8.0 8.1 8.2 7.9 7.9
6.4 6.6 6.6 6.4 6.4 6.5 6.5 6.6 6.6 6.6 6.5 6.3 6.2 6.0 5.7 5.1 5.3 5.1 5.1 4.8 4.6 4.6 4.4 5.5 5.7 6.4 6.5 6.7 6.9 7.4 7.3 7.4 7.4 7.4 6.8 6.8 6.0 6.4 6.5 7.1 7.7 7.8 8.0 8.2 7.7 7.7 7.9
6.4 6.4 6.3 6.3 6.2 6.3 6.4 6.5 6.5 6.5 6.3 6.1 6.0 5.6 5.5 5.5 5.1 5.4 5.2 5.7 5.0 4.8 4.6 5.1 5.6 7.0 6.8 6.5 6.5 7.3 7.5 7.6 7.3 7.1 6.9 6.3 6.2 6.8 6.4 6.8 7.3 8.1 8.0 8.0 8.0 8.2 8.3
6.2 6.2 6.2 6.3 6.3 6.3 6.3 6.3 6.3 6.3 5.9 6.0 6.0 5.7 5.6 5.6 5.2 5.2 6.7 5.7 4.8 5.0 5.1 5.3 5.8 6.3 6.3 6.5 7.0 6.7 7.1 7.9 7.5 6.9 7.1 6.3 6.0 6.3 6.3 7.3 7.9 7.9 6.6 7.8 8.2 8.0 8.0
6.0 6.0 6.1 6.2 6.3 6.3 6.3 6.2 6.2 6.0 5.7 5.9 6.0 5.7 5.8 5.4 5.3 5.9 4.9 5.2 5.7 5.5 5.6 6.1 6.0 6.0 7.5 7.1 6.7 6.4 6.7 7.6 7.5 7.1 6.9 6.4 6.4 5.6 6.0 7.0 7.5 6.2 7.0 7.8 8.1 8.2 8.3
5.5 5.6 5.6 5.7 5.6 5.2 5.0 5.0 5.2 5.5 5.6 5.8 5.8 5.8 5.7 5.4 5.2 5.2 5.3 5.3 5.3 6.0 5.7 6.2 6.2 6.4 6.9 6.6 6.6 6.4 6.5 6.8 7.2 7.2 7.1 6.8 6.5 5.6 6.0 6.3 7.0 7.3 7.4 7.9 8.1 7.8 8.1
5.5 5.5 5.5 5.5 5.4 5.3 5.3 5.2 5.2 5.5 5.6 5.9 6.1 5.7 5.8 5.6 5.4 5.4 5.5 5.6 5.5 5.9 5.9 6.2 6.7 6.7 6.8 6.7 6.5 6.4 6.6 7.0 7.2 7.6 6.8 7.2 6.9 7.2 6.3 5.7 6.1 6.9 7.7 8.2 8.1 7.8 8.5
5.7 5.7 5.8 5.8 5.6 5.4 5.5 5.5 5.6 5.8 5.9 5.8 5.8 6.0 6.2 6.2 6.0 5.5 5.6 5.7 6.1 6.3 6.3 6.3 6.9 7.2 7.0 6.8 6.7 6.3 6.4 6.6 6.9 7.2 6.8 7.1 7.2 6.9 7.2 6.1 6.6 6.6 7.6 8.2 8.2 7.7 8.1
6.4 6.5 6.5 6.4 6.3 6.2 5.9 5.6 5.4 5.5 5.8 6.0 5.8 6.1 6.3 6.1 6.2 6.3 5.9 5.7 6.1 6.7 6.6 6.9 6.9 6.8 7.0 6.7 6.7 6.5 6.5 6.7 6.8 6.9 7.2 7.5 7.5 7.0 6.4 6.3 6.5 6.2 7.0 7.9 7.3 7.3 7.6
7.0 6.9 6.7 6.6 6.4 6.5 6.4 6.4 6.5 6.5 6.4 6.4 6.2 6.4 6.4 6.3 6.9 6.5 6.5 6.2 6.1 6.8 7.4 7.5 7.2 7.4 7.5 7.2 6.9 6.9 6.6 7.0 6.9 6.8 7.5 7.2 7.4 7.3 7.6 7.2 7.7 7.2 6.3 7.3 7.2 7.4 7.6
Wind_Speed
12 14 13 13 13 12 10 12 12 15 16 18 18 20 17 15 18 16 18 18 20 21 21 22 22 20 8 3 11 5 8 5 5 5 5 5 1 3 4 3 5 6 6 9 5 9 5
15 14 14 15 13 15 14 12 14 14 15 17 17 20 19 18 17 18 18 19 20 19 20 21 20 18 1 7 6 9 7 4 4 4 4 6 6 5 6 4 0 3 7 8 7 4 9
15 15 16 16 15 14 14 16 16 15 14 15 16 18 19 19 20 20 21 21 22 20 19 20 18 8 8 17 5 5 4 3 3 5 5 6 3 2 4 6 0 5 6 9 6 2 6
16 16 16 17 16 15 15 14 15 17 17 16 15 17 19 19 20 22 23 24 25 24 22 22 11 3 9 8 15 12 12 7 8 10 9 8 5 5 4 1 7 5 3 4 7 1 4
18 17 18 19 16 16 15 15 17 16 16 18 17 17 18 20 21 23 25 26 30 30 17 10 2 3 11 10 5 10 14 7 4 7 7 9 4 6 1 3 4 2 5 5 9 4 6
18 18 19 19 18 18 17 17 17 16 16 16 17 17 17 19 22 24 26 29 32 15 6 7 2 2 8 6 4 4 7 9 4 4 3 6 2 3 2 3 6 6 4 2 6 5 4
19 20 20 21 21 22 22 21 20 19 18 15 14 16 16 17 20 22 13 6 4 2 1 7 8 7 13 3 6 4 1 7 4 3 7 3 3 10 11 10 6 6 6 10 11 8 4
20 22 21 21 23 23 23 22 21 20 20 18 15 15 15 16 19 20 5 3 4 4 10 14 18 23 24 7 10 14 4 7 7 9 5 4 13 12 8 9 8 9 11 16 8 5 6
21 22 22 23 24 25 22 22 22 21 19 16 15 15 14 16 18 9 4 8 8 8 5 8 18 15 16 13 16 20 6 6 5 7 8 12 6 14 11 12 9 13 11 12 8 4 3
22 22 22 23 24 24 22 23 22 21 20 17 15 14 13 11 7 4 4 5 14 8 4 8 7 10 13 12 9 25 11 8 6 13 9 8 15 13 9 11 11 13 13 9 4 3 3
23 22 23 24 24 23 22 23 22 22 21 18 15 14 12 8 4 3 8 22 19 2 5 6 6 4 9 16 7 8 14 7 12 12 8 8 8 15 15 19 11 14 10 8 7 4 3
24 24 25 26 25 23 23 23 22 22 22 19 16 15 13 5 1 7 16 18 3 2 9 6 4 7 9 11 3 3 8 4 5 6 11 10 5 5 7 10 12 11 3 1 3 1 1
24 26 27 26 25 24 24 24 23 22 22 21 19 17 12 7 3 5 10 5 2 6 3 5 4 5 8 9 7 3 6 11 9 7 12 13 20 15 7 8 8 5 5 2 3 3 6
27 27 27 27 26 25 24 24 24 22 22 22 20 18 8 11 6 5 4 4 12 4 12 3 4 6 2 5 6 4 5 5 8 3 5 9 6 14 8 16 8 7 8 6 6 3 4
30 28 28 27 26 25 24 24 24 23 22 23 20 3 3 5 10 1 1 10 6 5 5 8 15 3 3 3 5 7 8 9 8 13 7 7 7 8 6 7 8 6 4 7 7 3 2
32 30 29 28 27 27 25 24 24 24 22 22 3 4 6 12 14 3 4 19 7 5 7 8 2 3 3 5 5 2 7 5 7 12 12 4 4 6 14 4 9 11 7 4 2 5 3
32 31 31 30 28 28 25 25 25 24 22 22 5 4 6 19 5 4 10 14 14 18 12 5 2 4 3 4 4 4 4 8 7 11 14 9 6 10 4 6 15 3 4 3 6 5 5
34 32 32 31 30 29 27 25 25 25 23 14 4 5 7 12 7 5 17 11 5 6 12 11 7 3 2 5 4 3 4 5 5 4 7 11 8 13 22 10 4 6 9 8 5 4 3
34 34 33 32 31 30 29 27 27 26 26 3 3 3 5 10 12 17 11 16 17 3 4 3 5 6 7 3 4 5 4 7 5 5 2 5 6 3 7 7 10 6 5 5 4 4 8
35 36 34 33 32 31 30 29 29 28 28 9 4 5 4 9 7 16 18 19 19 9 18 16 12 8 3 4 7 8 7 7 6 4 4 1 4 10 17 5 5 5 5 7 9 5 5
37 36 34 33 33 31 31 30 30 29 28 10 5 5 5 9 17 13 16 9 21 18 14 7 9 22 7 6 2 11 6 7 2 4 5 7 5 10 10 15 14 11 14 12 10 6 9
37 35 35 33 32 32 32 32 32 32 31 11 5 4 5 3 12 21 22 24 25 16 11 14 17 7 15 17 8 11 12 9 6 2 4 4 4 10 9 11 15 17 11 16 16 7 6
35 34 33 32 31 31 31 32 32 33 29 9 7 3 4 10 11 14 30 17 18 17 11 22 13 15 16 9 8 7 10 8 6 4 3 5 3 6 6 4 4 9 22 13 5 5 6
32 31 30 29 29 29 29 27 29 33 33 10 4 4 5 6 17 25 9 19 19 18 21 14 11 14 8 6 2 1 2 1 1 3 2 6 4 2 4 4 15 13 6 8 13 11 8
28 28 27 25 24 25 25 26 26 27 37 12 5 5 6 10 15 17 21 14 17 18 20 17 18 14 9 6 4 5 2 3 7 6 6 3 5 3 5 4 8 9 6 5 10 20 8
26 27 26 26 26 26 26 25 26 27 28 11 5 2 2 4 19 15 14 15 11 14 15 20 16 5 3 3 3 7 5 4 5 5 8 8 5 3 4 3 5 5 8 7 2 4 5
27 28 28 28 28 29 29 28 27 28 29 12 4 13 2 2 3 12 14 16 12 9 5 4 8 9 7 3 4 4 6 3 4 6 7 3 2 5 4 4 8 10 16 5 7 6 10
25 25 27 27 27 28 29 30 30 29 28 18 3 12 8 2 3 14 13 8 10 14 9 4 3 3 3 6 4 4 3 6 3 2 7 7 6 4 3 3 9 6 13 5 2 3 4
18 17 18 21 23 25 27 28 29 30 30 26 4 10 9 4 3 8 3 3 25 23 12 6 5 5 6 4 3 2 2 2 6 6 4 4 6 4 6 6 6 7 4 3 4 5 3
Wind_Direction
312 311 310 313 322 319 328 326 322 321 316 315 317 313 306 310 312 315 318 320 319 323 326 329 328 331 347 311 252 268 164 156 148 162 212 179 202 193 230 223 342 192 282 304 253 82 89
313 312 309 307 314 320 327 323 314 306 303 306 308 310 314 311 303 304 303 304 308 310 313 320 322 329 241 263 263 272 163 133 231 184 215 169 211 193 280 248 132 292 281 267 286 136 146
309 310 312 312 313 306 307 307 307 301 301 300 305 306 311 315 310 306 303 301 301 301 302 303 308 310 261 250 258 323 330 229 207 195 230 218 203 164 284 316 146 282 323 328 294 238 139
298 301 302 297 307 306 299 295 293 298 304 303 304 303 306 311 316 311 304 303 298 295 297 292 297 264 254 255 258 255 258 260 236 230 227 265 238 251 221 248 352 335 354 333 282 65 200
304 302 301 299 301 295 295 295 289 293 295 297 303 305 306 309 313 309 308 303 296 292 283 269 190 194 263 294 233 247 210 215 227 218 233 255 245 206 351 74 350 356 251 244 300 240 151
300 301 300 301 303 304 300 295 293 293 287 292 297 300 305 312 314 314 315 306 294 294 225 153 219 319 256 256 257 256 188 174 200 234 259 204 84 189 41 108 220 217 228 280 250 240 127
299 297 295 296 295 294 293 291 289 289 286 283 288 293 296 305 313 318 332 334 5 47 323 207 193 249 289 280 290 288 194 140 160 200 195 211 160 220 211 211 233 266 263 267 270 236 141
298 297 297 298 298 296 291 291 288 282 282 278 277 284 288 299 310 315 326 275 274 96 296 261 248 246 256 284 301 288 145 172 156 207 155 227 224 226 216 233 234 255 266 279 263 218 159
293 291 288 291 293 292 289 286 286 284 280 277 277 276 279 292 311 306 216 250 285 332 259 256 235 238 233 206 234 256 185 199 173 168 205 214 211 205 224 248 244 254 250 259 217 227 314
290 289 292 294 290 288 287 284 282 279 274 269 265 267 270 289 307 292 251 322 326 302 274 271 221 237 211 195 235 223 182 174 209 197 201 230 235 241 229 243 239 259 253 254 235 121 216
289 286 290 291 288 284 281 279 276 274 267 260 256 258 254 229 294 304 328 325 317 159 304 252 214 210 167 176 166 203 195 147 206 200 161 226 178 205 225 235 238 256 215 230 244 224 136
286 288 288 287 283 281 279 275 269 267 266 257 246 241 238 268 192 256 297 303 299 129 243 279 209 159 132 209 259 106 156 121 165 212 230 227 262 205 218 237 226 250 188 249 12 104 342
287 286 285 281 278 276 276 272 267 261 258 254 248 237 216 203 223 338 338 318 157 213 287 248 226 175 167 176 242 150 166 176 180 175 216 238 248 258 247 273 275 188 97 270 323 342 230
283 282 282 279 274 273 270 267 263 261 254 249 243 234 222 221 230 321 348 232 218 244 241 360 348 14 221 141 238 210 152 159 214 197 180 206 279 224 216 209 211 208 161 164 204 204 269
283 280 279 275 274 268 264 264 259 255 245 245 234 205 202 202 204 73 277 225 218 196 265 317 324 309 276 221 201 168 206 203 195 195 199 180 240 267 211 212 166 242 166 188 112 26 77
281 278 277 274 272 263 263 260 255 253 244 237 197 193 204 143 160 149 239 229 231 245 333 7 260 313 347 1 11 47 188 208 220 200 199 240 281 228 257 232 252 193 171 101 14 145 233
276 274 273 271 269 262 262 259 251 244 236 228 192 204 174 138 124 192 226 219 235 266 298 317 334 312 317 2 16 4 306 309 214 214 191 203 221 258 341 214 229 217 189 119 134 144 168
272 271 269 267 266 259 255 254 243 237 230 218 185 209 175 144 191 204 226 213 252 293 260 251 301 267 309 346 294 228 245 286 39 318 230 202 208 232 247 250 244 210 195 172 165 219 198
271 268 266 264 262 257 252 249 237 228 222 167 196 149 163 162 209 218 218 218 242 254 296 281 256 227 194 204 346 295 262 290 67 53 74 340 238 231 292 258 240 207 213 181 144 122 185
268 267 264 262 260 251 250 243 233 225 219 204 144 172 172 204 233 210 216 226 226 221 249 254 280 302 344 282 232 265 305 308 360 57 141 207 268 235 231 265 184 203 197 201 184 160 189
266 265 262 260 254 250 246 240 230 223 214 203 172 216 194 199 212 210 207 216 217 224 222 229 248 236 241 282 272 238 245 275 1 18 47 19 282 297 252 223 224 238 228 226 215 202 190
266 264 261 256 251 247 241 235 227 220 209 215 176 183 186 115 182 206 222 223 224 207 221 220 247 271 210 234 252 312 321 301 264 277 120 67 291 321 281 225 226 229 227 223 245 247 243
264 263 259 254 248 243 237 233 224 214 199 211 202 226 183 199 180 194 218 216 222 211 249 231 246 242 248 249 257 253 236 259 243 252 91 116 346 337 284 210 218 248 223 217 209 202 196
263 259 255 249 243 238 234 226 218 215 206 213 180 152 187 203 201 216 175 205 211 218 223 243 230 239 250 212 177 200 14 10 160 255 187 158 124 286 275 315 223 256 184 216 233 240 221
260 256 250 245 239 231 227 224 222 221 207 213 187 184 196 224 217 213 207 201 200 222 233 235 244 246 292 262 206 250 296 272 227 206 199 128 131 132 294 293 287 300 245 208 208 244 227
257 252 247 240 233 229 225 221 215 208 210 209 206 123 166 222 222 203 203 190 186 208 227 245 252 274 346 226 184 202 215 229 190 117 139 91 105 161 140 300 286 332 242 213 139 286 357
259 253 247 240 233 227 222 218 213 210 209 200 178 175 133 227 212 185 193 192 191 177 211 197 224 237 186 195 225 215 222 194 221 167 177 122 142 175 163 190 246 265 279 272 224 261 326
262 256 246 239 235 227 219 213 209 206 202 195 156 178 172 190 291 204 186 162 177 198 191 193 170 259 96 189 169 211 180 198 158 222 165 163 166 199 135 181 270 217 280 99 200 271 277
260 250 240 232 227 217 213 210 204 202 196 189 197 172 175 191 275 315 284 226 189 195 197 191 193 177 186 157 200 129 204 74 142 231 194 224 187 183 198 213 229 189 257 217 178 243 360